This is the latest recevied weather packets stored in our database for station/object CE3MXM-13. If no packets are shown the sender has not sent any weather packets the latest 10 day(s).
| Time | Temp. | Humidity | Pressure | Rain* | Wind** | Luminosity | Snow |
|---|---|---|---|---|---|---|---|
| 1778008509 | 21.67° C | 51% | 1008.9 hPa | - | - | - | - |
| 1778008208 | 21.67° C | 49% | 1008.9 hPa | - | - | - | - |
| 1778007908 | 21.67° C | 49% | 1008.7 hPa | - | - | - | - |
| 1778007609 | 21.67° C | 50% | 1008.9 hPa | - | - | - | - |
| 1778007308 | 21.67° C | 49% | 1008.7 hPa | - | - | - | - |
| 1778007009 | 21.67° C | 48% | 1008.9 hPa | - | - | - | - |
| 1778006708 | 21.67° C | 47% | 1008.7 hPa | - | - | - | - |
| 1778006408 | 21.67° C | 47% | 1008.5 hPa | - | - | - | - |
| 1778006108 | 21.67° C | 47% | 1008.6 hPa | - | - | - | - |
| 1778005808 | 22.22° C | 46% | 1008.6 hPa | - | - | - | - |
| 1778005508 | 22.22° C | 45% | 1008.7 hPa | - | - | - | - |
| 1778005208 | 22.22° C | 45% | 1008.5 hPa | - | - | - | - |
| 1778004907 | 22.22° C | 46% | 1008.7 hPa | - | - | - | - |
| 1778004608 | 22.22° C | 45% | 1008.5 hPa | - | - | - | - |
| 1778004307 | 22.22° C | 45% | 1008.3 hPa | - | - | - | - |
| 1778004007 | 22.22° C | 45% | 1008.4 hPa | - | - | - | - |
| 1778003707 | 22.22° C | 43% | 1008.2 hPa | - | - | - | - |
| 1778003407 | 22.78° C | 45% | 1008.4 hPa | - | - | - | - |
| 1778003107 | 23.33° C | 41% | 1008.4 hPa | - | - | - | - |
| 1778002807 | 23.33° C | 43% | 1008.2 hPa | - | - | - | - |
| 1778002507 | 22.78° C | 43% | 1008.3 hPa | - | - | - | - |
| 1778002207 | 22.78° C | 44% | 1008.4 hPa | - | - | - | - |
| 1778001907 | 22.78° C | 41% | 1008.3 hPa | - | - | - | - |
| 1778001606 | 22.78° C | 42% | 1008.3 hPa | - | - | - | - |
| 1778001306 | 22.78° C | 40% | 1008.3 hPa | - | - | - | - |
* Rain since midnight (hover to see other rain measurements)
** Current wind speed in m/s (hover to see current wind gust speed)